Regional Weather Roundup
Issued by NWS

Home | Current Version | Previous Version | Graphics & Text | Print | Product List | Glossary On
Versions: 1 2 3 4 5 6 7 8 9 10 11 12 13 14 15 16 17 18 19 20 21 22 23 24 25 26 27 28
000
ASUS45 KBOU 150807
RWRCO

WEATHER ROUNDUP FOR COLORADO
NATIONAL WEATHER SERVICE DENVER/BOULDER CO
100 AM MST SUN JAN 15 2017

NOTE: "FAIR" INDICATES FEW OR NO CLOUDS BELOW 12000 FEET WITH NO
SIGNIFICANT WEATHER AND/OR OBSTRUCTIONS TO VISIBILITY.

COZ001>005-013-030-031-150900-
...NORTHWEST COLORADO...

CITY           SKY/WX    TMP DP  RH WIND       PRES   REMARKS
CRAIG          CLOUDY    28  25  88 E5        30.18F WCI  23
HAYDEN         CLOUDY    25  21  86 NE6       30.17F WCI  18
MEEKER         CLOUDY    30  28  92 SW3       30.15F
MOUNT WERNER   NOT AVBL
STEAMBOAT SPGS CLOUDY    25  24  96 CALM      30.16S
WALDEN           N/A    N/A N/A N/A CALM      30.18F VSB 1/4
$$

COZ006>008-011-150900-
...WEST CENTRAL VALLEYS...

CITY           SKY/WX    TMP DP  RH WIND       PRES   REMARKS
GRAND JUNCTION FAIR      35  33  92 CALM      30.09F
MONTROSE       FOG       32  32 100 E3        30.09F VSB 1/4
EAGLE          CLOUDY    29  25  85 E6        30.16F WCI  23
RIFLE          CLOUDY    31  30  96 CALM      30.12F
DELTA          CLOUDY    37  37  97 CALM      30.09F FOG
NUCLA          CLOUDY    36  34  93 SE3       30.10F FOG
$$

COZ017>023-064>068-150900-
...SOUTHWEST COLORADO...

CITY           SKY/WX    TMP DP  RH WIND       PRES   REMARKS
DURANGO        LGT RAIN  37  33  85 CALM      30.05F
CORTEZ         CLOUDY    38  38 100 SW6       30.01F
PAGOSA SPRINGS CLOUDY    34  32  92 CALM      30.07F
TELLURIDE      CLOUDY    32  28  83 SE3       30.10S
WOLF CREEK PAS   N/A     23  23 100 S7        30.20F WCI  15
$$

COZ009-010-012-014-032>034-037-058>063-150900-
...CENTRAL COLORADO...

CITY           SKY/WX    TMP DP  RH WIND       PRES   REMARKS
ASPEN          CLOUDY    26  26 100 CALM      30.10F FOG
BUENA VISTA    CLOUDY    30  28  94 W3        30.15F
COPPER MTN     NOT AVBL
BERTHOUD PASS  NOT AVBL
COTTONWOOD PAS CLOUDY    30  27  86 W5        30.15F WCI  25
GUNNISON       CLOUDY    15  13  91 CALM      30.15F FOG
KREMMLING      CLOUDY    23  21  93 CALM      30.19F FOG
LEADVILLE      CLOUDY    24  20  84 N3        30.15F
MONARCH PASS   FAIR      23  21  93 CALM      30.27F
SALIDA         CLOUDY    32  31  94 CALM      30.22F
SUNLIGHT       FOG       25  23  93 S3        30.18F VSB 3/4
WILKERSON PASS MOCLDY   N/A N/A N/A SW6       30.21F
$$

COZ069>075-150900-
...SAN LUIS VALLEY/SANGRE DE CRISTO MOUNTAINS...

CITY           SKY/WX    TMP DP  RH WIND       PRES   REMARKS
ALAMOSA        FOG       24  22  91 SE3       30.11F VSB 1/2
LA VETA PASS   NOT AVBL
SAGUACHE       FAIR      28  23  80 NW10      30.10F WCI  19
$$

COZ035-036-038>040-150900-
...NORTHERN COLORADO FRONT RANGE...

CITY           SKY/WX    TMP DP  RH WIND       PRES   REMARKS
DENVER INTL AP FAIR      24  20  84 S8        30.17F FOG     WCI  15
DMNS CITY PARK   N/A     26  26  99 NE1G7     30.17F
AURORA         PTCLDY    26  26  99 SW3       30.17F
FRONT RANGE AP FAIR      28  27  93 SE5       30.17F FOG     WCI  23
ERIE MUNI ARPT FAIR      22  21  96 S3        30.19F FOG
BOULDER MUN AP FAIR      30  28  93 CALM      30.18F FOG
CENTENNIAL     MOCLDY    28  24  85 CALM      30.16F
BROOMFIELD     NOT AVBL
FORT COLLINS   FAIR      27  25  93 CALM      30.20S
LONGMONT       FAIR      27  25  91 SW3       30.21F FOG
$$

COZ041-046-047-076>085-087-088-150900-
...PIKES PEAK/PALMER DIVIDE AND SOUTHERN FOOTHILLS...

CITY           SKY/WX    TMP DP  RH WIND       PRES   REMARKS
COLO. SPRINGS  MOCLDY    26  20  77 N6        30.14F WCI  19
A. F. ACADEMY  FAIR      22  19  87 N8        30.12F WCI  13
SCHRIEVER AFB  NOT AVBL
ELLICOTT       FAIR     N/A N/A N/A N7        30.12F
FALCON         FAIR      27  22  80 NW5       30.14F WCI  22
FORT CARSON    NOT AVBL
LIMON          FAIR      18  17  96 N7        30.15F WCI   9
MONUMENT HILL  FAIR      25  21  86 CALM      30.16F
TRINIDAD       CLOUDY    34  26  72 NW5       30.14F HAZE    WCI  30
$$

COZ042>045-048>051-090-091-150900-
...NORTHEAST COLORADO...

CITY           SKY/WX    TMP DP  RH WIND       PRES   REMARKS
GREELEY ARPT   FAIR      23  22  96 CALM      30.21F
AKRON          FAIR      23  18  81 SW3       30.17F
BURLINGTON     CLOUDY    33  24  69 N3        30.19F
WRAY           NOT AVBL
STERLING       FAIR      28  27  93 CALM      30.20F
HOLYOKE        FAIR      23  18  80 CALM      30.23F
FORT MORGAN    FAIR      25  21  84 E3        30.21F
$$

COZ086-089-092>099-150900-
...SOUTHEAST COLORADO...

CITY           SKY/WX    TMP DP  RH WIND       PRES   REMARKS
PUEBLO         FAIR      26  22  84 SW5       30.15F WCI  20
LA JUNTA       CLOUDY    32  26  78 CALM      30.17F
LAMAR          CLOUDY    32  26  78 E6        30.18F WCI  26
SPRINGFIELD      N/A     30  29  96 S3        30.18F
$$




USA.gov is the U.S. government's official web portal to all federal, state and local government web resources and services.